| time (UTC) | temp F | wind direction | speed knots | gust knots | rain 1hr in | rain 24hr in | rain mn in | humidity % | barometer mb |
| 20260503050003 | 53 | 130 | 7.0 | 9.6 | 0.00 | 0.55 | 0.01 | 95 | 1011.7 |
| 20260503045003 | 53 | 131 | 6.1 | 11.3 | 0.00 | 0.55 | 0.01 | 95 | 1011.8 |
| 20260503044003 | 53 | 130 | 6.1 | 9.6 | 0.00 | 0.55 | 0.01 | 95 | 1012.0 |
| 20260503043003 | 53 | 132 | 5.2 | 11.3 | 0.00 | 0.55 | 0.01 | 95 | 1012.0 |
| 20260503042003 | 53 | 123 | 6.1 | 8.7 | 0.00 | 0.55 | 0.01 | 95 | 1012.1 |
| 20260503041003 | 53 | 129 | 5.2 | 9.6 | 0.00 | 0.55 | 0.01 | 95 | 1012.1 |
| 20260503040003 | 53 | 133 | 6.1 | 11.3 | 0.00 | 0.55 | 0.01 | 94 | 1012.2 |
| 20260503035003 | 53 | 131 | 6.1 | 9.6 | 0.00 | 0.55 | 0.01 | 94 | 1012.4 |
| 20260503034003 | 53 | 130 | 6.1 | 9.6 | 0.00 | 0.55 | 0.01 | 93 | 1012.6 |
| 20260503033003 | 53 | 133 | 6.1 | 9.6 | 0.00 | 0.55 | 0.01 | 92 | 1012.8 |
| 20260503032003 | 53 | 129 | 6.1 | 11.3 | 0.00 | 0.55 | 0.01 | 91 | 1012.7 |
| 20260503031003 | 54 | 123 | 6.1 | 9.6 | 0.00 | 0.55 | 0.01 | 90 | 1012.8 |
| 20260503030003 | 54 | 130 | 5.2 | 9.6 | 0.00 | 0.55 | 0.01 | 90 | 1012.7 |
| 20260503025003 | 54 | 123 | 6.1 | 11.3 | 0.00 | 0.55 | 0.01 | 89 | 1012.6 |
| 20260503024003 | 54 | 124 | 5.2 | 7.8 | 0.00 | 0.55 | 0.01 | 89 | 1012.8 |
| 20260503023003 | 54 | 135 | 4.3 | 8.7 | 0.00 | 0.55 | 0.01 | 87 | 1012.8 |
| 20260503022003 | 54 | 137 | 5.2 | 7.8 | 0.00 | 0.55 | 0.01 | 86 | 1012.8 |
| 20260503021003 | 54 | 126 | 4.3 | 7.0 | 0.00 | 0.55 | 0.01 | 85 | 1012.9 |
| 20260503020003 | 54 | 132 | 3.5 | 7.0 | 0.00 | 0.55 | 0.01 | 85 | 1012.9 |
| 20260503015003 | 55 | 132 | 4.3 | 8.7 | 0.00 | 0.55 | 0.01 | 83 | 1013.0 |
| 20260503014003 | 55 | 121 | 3.5 | 7.0 | 0.00 | 0.55 | 0.01 | 83 | 1013.1 |
| 20260503013003 | 54 | 124 | 4.3 | 7.8 | 0.00 | 0.55 | 0.01 | 84 | 1013.0 |
| 20260503012003 | 54 | 116 | 3.5 | 6.1 | 0.00 | 0.55 | 0.01 | 86 | 1012.9 |
| 20260503011003 | 54 | 117 | 3.5 | 6.1 | 0.00 | 0.55 | 0.01 | 86 | 1013.1 |
| 20260503010003 | 54 | 113 | 3.5 | 5.2 | 0.00 | 0.55 | 0.01 | 86 | 1013.3 |
| 20260503005003 | 54 | 116 | 3.5 | 6.1 | 0.00 | 0.55 | 0.01 | 85 | 1013.3 |
| 20260503004003 | 54 | 120 | 3.5 | 6.1 | 0.00 | 0.55 | 0.01 | 86 | 1013.6 |
| 20260503003003 | 54 | 119 | 2.6 | 5.2 | 0.00 | 0.55 | 0.01 | 87 | 1013.3 |
| 20260503002003 | 55 | 144 | 1.7 | 2.6 | 0.01 | 0.55 | 0.01 | 85 | 1013.4 |
| 20260503001003 | 55 | 131 | 0.9 | 2.6 | 0.01 | 0.55 | 0.01 | 84 | 1013.8 |
| 20260503000003 | 54 | 125 | 2.6 | 3.5 | 0.01 | 0.55 | 0.01 | 84 | 1013.8 |
| 20260502235003 | 55 | 122 | 2.6 | 6.1 | 0.01 | 0.55 | 0.01 | 84 | 1013.9 |
| 20260502234003 | 56 | 174 | 0.9 | 3.5 | 0.01 | 0.55 | 0.01 | 79 | 1014.0 |
| 20260502233003 | 55 | 119 | 0.0 | 1.7 | 0.01 | 0.55 | 0.01 | 83 | 1014.0 |
| 20260502232003 | 56 | 131 | 0.9 | 2.6 | 0.00 | 0.54 | 0.00 | 80 | 1013.8 |
| 20260502231003 | 56 | 134 | 0.0 | 0.9 | 0.00 | 0.54 | 0.00 | 79 | 1014.0 |
| 20260502230003 | 57 | 262 | 0.9 | 2.6 | 0.00 | 0.54 | 0.00 | 78 | 1013.9 |
| 20260502225003 | 58 | 239 | 3.5 | 7.8 | 0.00 | 0.54 | 0.00 | 75 | 1014.2 |
| 20260502224003 | 58 | 206 | 4.3 | 7.8 | 0.00 | 0.54 | 0.00 | 72 | 1014.1 |
| 20260502223003 | 58 | 208 | 4.3 | 7.8 | 0.00 | 0.54 | 0.00 | 71 | 1014.2 |
| 20260502222003 | 56 | 170 | 1.7 | 2.6 | 0.00 | 0.54 | 0.00 | 76 | 1014.3 |
| 20260502221003 | 56 | 132 | 1.7 | 1.7 | 0.00 | 0.54 | 0.00 | 78 | 1014.3 |
| 20260502220003 | 56 | 133 | 1.7 | 3.5 | 0.00 | 0.54 | 0.00 | 77 | 1014.2 |
| 20260502215003 | 57 | 194 | 3.5 | 5.2 | 0.00 | 0.54 | 0.54 | 74 | 1014.5 |
| 20260502214003 | 56 | 182 | 2.6 | 5.2 | 0.00 | 0.54 | 0.54 | 74 | 1014.5 |
| 20260502213003 | 57 | 192 | 2.6 | 6.1 | 0.00 | 0.54 | 0.54 | 74 | 1014.2 |
| 20260502212003 | 57 | 196 | 2.6 | 3.5 | 0.00 | 0.54 | 0.54 | 73 | 1014.5 |
| 20260502211003 | 57 | 200 | 2.6 | 5.2 | 0.00 | 0.54 | 0.54 | 73 | 1014.4 |
| 20260502210003 | 56 | 191 | 3.5 | 6.1 | 0.00 | 0.54 | 0.54 | 74 | 1014.3 |
| 20260502205003 | 56 | 188 | 3.5 | 6.1 | 0.00 | 0.54 | 0.54 | 74 | 1014.1 |
| 20260502204003 | 57 | 202 | 3.5 | 7.0 | 0.00 | 0.54 | 0.54 | 74 | 1014.3 |
| 20260502203003 | 56 | 203 | 5.2 | 7.8 | 0.00 | 0.54 | 0.54 | 74 | 1014.0 |
| 20260502202003 | 57 | 203 | 4.3 | 7.0 | 0.00 | 0.54 | 0.54 | 74 | 1013.9 |
| 20260502201003 | 57 | 210 | 4.3 | 7.0 | 0.00 | 0.54 | 0.54 | 74 | 1013.9 |
| 20260502200003 | 56 | 204 | 4.3 | 6.1 | 0.00 | 0.54 | 0.54 | 76 | 1013.8 |
| 20260502195003 | 57 | 211 | 2.6 | 5.2 | 0.00 | 0.54 | 0.54 | 75 | 1013.7 |
| 20260502194003 | 57 | 205 | 2.6 | 3.5 | 0.00 | 0.54 | 0.54 | 77 | 1013.6 |
| 20260502193003 | 57 | 209 | 2.6 | 6.1 | 0.00 | 0.54 | 0.54 | 76 | 1013.6 |
| 20260502192003 | 57 | 217 | 2.6 | 6.1 | 0.00 | 0.54 | 0.54 | 76 | 1013.4 |
| 20260502191003 | 57 | 214 | 3.5 | 6.1 | 0.00 | 0.54 | 0.54 | 76 | 1013.7 |
| 20260502190003 | 57 | 218 | 4.3 | 8.7 | 0.00 | 0.54 | 0.54 | 75 | 1013.4 |
| 20260502185003 | 58 | 221 | 2.6 | 6.1 | 0.00 | 0.54 | 0.54 | 77 | 1013.1 |
| 20260502184003 | 57 | 215 | 4.3 | 7.8 | 0.00 | 0.54 | 0.54 | 77 | 1013.2 |
| 20260502183003 | 57 | 222 | 5.2 | 8.7 | 0.00 | 0.54 | 0.54 | 78 | 1013.2 |
| 20260502182003 | 57 | 230 | 3.5 | 7.0 | 0.00 | 0.54 | 0.54 | 76 | 1013.2 |
| 20260502181003 | 58 | 230 | 3.5 | 7.8 | 0.00 | 0.54 | 0.54 | 78 | 1013.4 |
| 20260502164003 | 61 | 261 | 7.0 | 13.0 | 0.00 | 0.54 | 0.54 | 75 | 1013.7 |
| 20260502163003 | 60 | 260 | 11.3 | 18.2 | 0.00 | 0.54 | 0.54 | 78 | 1013.8 |
| 20260502162003 | 61 | 251 | 11.3 | 23.5 | 0.00 | 0.54 | 0.54 | 75 | 1013.8 |
| 20260502161003 | 64 | 220 | 7.0 | 13.0 | 0.00 | 0.54 | 0.54 | 69 | 1013.6 |
| 20260502152003 | 63 | 267 | 2.6 | 6.1 | 0.00 | 0.54 | 0.54 | 81 | 1014.1 |
| 20260502151003 | 61 | 256 | 3.5 | 7.0 | 0.00 | 0.54 | 0.54 | 83 | 1013.9 |
| 20260502123003 | 61 | 146 | 8.7 | 16.5 | 0.00 | 0.01 | 0.01 | 74 | 1015.8 |
| 20260502122003 | 61 | 135 | 8.7 | 15.6 | 0.00 | 0.01 | 0.01 | 74 | 1015.7 |
| 20260502121003 | 61 | 149 | 7.0 | 13.9 | 0.00 | 0.01 | 0.01 | 74 | 1015.8 |
| 20260502115003 | 60 | 155 | 7.8 | 14.8 | 0.00 | 0.01 | 0.01 | 78 | 1016.5 |
| 20260502114003 | 60 | 151 | 7.0 | 13.0 | 0.00 | 0.01 | 0.01 | 77 | 1016.6 |
| 20260502113003 | 59 | 137 | 6.1 | 11.3 | 0.00 | 0.01 | 0.01 | 81 | 1016.7 |
| 20260502112003 | 59 | 147 | 5.2 | 9.6 | 0.00 | 0.01 | 0.01 | 82 | 1016.8 |
| 20260502111003 | 58 | 161 | 6.1 | 13.9 | 0.00 | 0.01 | 0.01 | 82 | 1017.0 |
| 20260502110003 | 59 | 150 | 6.1 | 13.9 | 0.00 | 0.01 | 0.01 | 81 | 1017.0 |
| 20260502105003 | 58 | 146 | 6.1 | 11.3 | 0.00 | 0.01 | 0.01 | 82 | 1017.3 |
| 20260502104003 | 58 | 153 | 6.1 | 12.2 | 0.00 | 0.01 | 0.01 | 83 | 1017.3 |
| 20260502103003 | 58 | 163 | 5.2 | 12.2 | 0.00 | 0.01 | 0.01 | 83 | 1017.7 |
| 20260502102003 | 58 | 140 | 7.8 | 14.8 | 0.00 | 0.01 | 0.01 | 83 | 1017.6 |
| 20260502101003 | 58 | 148 | 6.1 | 11.3 | 0.01 | 0.01 | 0.01 | 83 | 1017.5 |
| 20260502091003 | 56 | 134 | 6.1 | 9.6 | 0.00 | 0.00 | 0.00 | 89 | 1017.8 |
| 20260502071003 | 55 | 131 | 7.0 | 11.3 | 0.00 | 0.00 | 0.00 | 90 | 1017.7 |
| 20260502070003 | 55 | 124 | 6.1 | 12.2 | 0.00 | 0.00 | 0.00 | 88 | 1017.8 |
| 20260502065003 | 55 | 128 | 7.8 | 13.0 | 0.00 | 0.00 | 0.00 | 87 | 1017.7 |
| 20260502064003 | 55 | 125 | 9.6 | 14.8 | 0.00 | 0.00 | 0.00 | 87 | 1017.7 |
| 20260502063003 | 55 | 133 | 9.6 | 15.6 | 0.00 | 0.00 | 0.00 | 87 | 1017.3 |
| 20260502062003 | 55 | 129 | 9.6 | 15.6 | 0.00 | 0.00 | 0.00 | 87 | 1017.4 |
| 20260502061003 | 55 | 127 | 8.7 | 13.9 | 0.00 | 0.00 | 0.00 | 87 | 1017.3 |
| 20260502060003 | 55 | 132 | 10.4 | 14.8 | 0.00 | 0.00 | 0.00 | 86 | 1017.0 |
| 20260502055003 | 55 | 128 | 8.7 | 15.6 | 0.00 | 0.00 | 0.00 | 87 | 1016.8 |
| 20260502054003 | 55 | 132 | 8.7 | 13.9 | 0.00 | 0.00 | 0.00 | 87 | 1017.3 |
| 20260502053003 | 55 | 126 | 7.8 | 12.2 | 0.00 | 0.00 | 0.00 | 87 | 1017.3 |
| 20260502052003 | 55 | 128 | 7.8 | 13.0 | 0.00 | 0.00 | 0.00 | 87 | 1017.3 |
| 20260502051003 | 55 | 125 | 7.8 | 13.0 | 0.00 | 0.00 | 0.00 | 87 | 1017.1 |